Aroma Park, IL

6:39 PM CDT on September 30, 2016 (GMT -0500)
Greater Kankakee

Weather History for KIKK - July, 2013

Change the Weather History Date:

Monday, July 1, 2013

  Actual Average Record
Temperature  
Mean Temperature 66 °F -  
Max Temperature 74 °F 82 °F 99 °F (1991)
Min Temperature 59 °F 60 °F 49 °F (1982)
Cooling Degree Days 2    
Growing Degree Days 16 (Base 50)    
Moisture  
Dew Point 55 °F    
Average Humidity 64    
Maximum Humidity 81    
Minimum Humidity 48    
Precipitation  
Precipitation 0.00 in - - ()
Sea Level Pressure  
Sea Level Pressure 30.00 in    
Wind  
Wind Speed 9 mph (NNE)    
Max Wind Speed 20 mph    
Max Gust Speed 28 mph    
Visibility 10 miles    
Events      
Averages and records for this station are not official NWS values.
T = Trace of Precipitation, MM = Missing Value Source: NWS Daily Summary

Daily Weather History Graph

Daily Weather History Graph

Search for Another Location

Airport or City:

Trip Planner

Search our weather history database for the weather conditions in past years. The results will help you decide how hot, cold, wet, or windy it might be!

Date:

Astronomy

Jul. 01, 2013 Rise Set
Actual Time 5:22 AM CDT 8:27 PM CDT
Civil Twilight 4:49 AM CDT 9:01 PM CDT
Nautical Twilight 4:06 AM CDT 9:43 PM CDT
Astronomical Twilight 3:16 AM CDT 10:34 PM CDT
Moon 12:54 AM CDT (7/1) 2:40 PM CDT (7/1)
Length of Visible Light 16h 11m
Length of Day
15h 04m
Waning Crescent, 35% of the Moon is Illuminated
Jul 1
Waning Crescent
Jul 8
New
Jul 15
First Quarter
Jul 22
Full
Jul 29
Last Quarter

Hourly Weather History & Observations

Time (CDT) Temp. Dew Point Humidity Pressure Visibility Wind Dir Wind Speed Gust Speed Precip Events Conditions
12:15 AM 63.7 °F 51.8 °F 65% 29.96 in 10.0 mi North 6.9 mph - N/A   Overcast
12:35 AM 63.5 °F 52.0 °F 66% 29.96 in 10.0 mi North 8.1 mph - N/A   Mostly Cloudy
12:55 AM 63.5 °F 52.2 °F 67% 29.96 in 10.0 mi North 6.9 mph - N/A   Mostly Cloudy
1:15 AM 63.0 °F 52.7 °F 69% 29.96 in 10.0 mi North 6.9 mph - N/A   Mostly Cloudy
1:35 AM 62.8 °F 52.9 °F 70% 29.96 in 10.0 mi NNE 6.9 mph - N/A   Mostly Cloudy
1:55 AM 62.2 °F 53.4 °F 73% 29.96 in 10.0 mi NNE 5.8 mph - N/A   Mostly Cloudy
2:15 AM 61.9 °F 54.0 °F 75% 29.96 in 10.0 mi NNE 5.8 mph - N/A   Overcast
2:35 AM 62.6 °F 54.1 °F 74% 29.96 in 10.0 mi NNE 5.8 mph - N/A   Mostly Cloudy
2:55 AM 62.6 °F 54.5 °F 75% 29.96 in 10.0 mi NNE 6.9 mph - N/A   Mostly Cloudy
3:15 AM 62.2 °F 55.0 °F 77% 29.96 in 10.0 mi NNE 6.9 mph - N/A   Scattered Clouds
3:35 AM 62.2 °F 55.4 °F 78% 29.96 in 10.0 mi NNE 6.9 mph - N/A   Scattered Clouds
3:55 AM 62.6 °F 55.4 °F 77% 29.96 in 10.0 mi NNE 6.9 mph - N/A   Mostly Cloudy
4:15 AM 62.2 °F 55.6 °F 79% 29.96 in 10.0 mi NNE 9.2 mph - N/A   Mostly Cloudy
4:35 AM 61.5 °F 55.6 °F 81% 29.96 in 10.0 mi North 6.9 mph - N/A   Scattered Clouds
4:55 AM 60.8 °F 54.9 °F 81% 29.97 in 10.0 mi North 6.9 mph - N/A   Clear
5:15 AM 60.1 °F 54.0 °F 80% 29.97 in 10.0 mi NNE 6.9 mph - N/A   Clear
5:35 AM 59.9 °F 52.7 °F 77% 29.97 in 10.0 mi North 5.8 mph - N/A   Clear
5:55 AM 60.1 °F 52.7 °F 77% 29.98 in 10.0 mi North 5.8 mph - N/A   Clear
6:15 AM 61.9 °F 52.0 °F 70% 29.98 in 10.0 mi North 9.2 mph - N/A   Clear
6:35 AM 62.6 °F 51.4 °F 67% 29.98 in 10.0 mi NNE 9.2 mph - N/A   Clear
6:55 AM 62.4 °F 51.8 °F 68% 29.99 in 10.0 mi NNE 8.1 mph - N/A   Clear
7:15 AM 62.8 °F 51.4 °F 66% 29.99 in 10.0 mi NNE 9.2 mph - N/A   Clear
7:35 AM 63.5 °F 51.3 °F 64% 30.00 in 10.0 mi NNE 10.4 mph 17.3 mph N/A   Clear
7:55 AM 63.9 °F 50.9 °F 63% 30.00 in 10.0 mi NNE 10.4 mph - N/A   Clear
8:15 AM 64.6 °F 51.4 °F 62% 30.01 in 10.0 mi NNE 10.4 mph 19.6 mph N/A   Clear
8:35 AM 65.7 °F 52.9 °F 63% 30.01 in 10.0 mi NNE 9.2 mph - N/A   Clear
8:55 AM 66.7 °F 53.4 °F 62% 30.01 in 10.0 mi NNE 8.1 mph - N/A   Clear
9:15 AM 69.3 °F 53.8 °F 58% 30.01 in 10.0 mi NNE 13.8 mph 18.4 mph N/A   Clear
9:35 AM 70.0 °F 53.8 °F 56% 30.01 in 10.0 mi NNE 12.7 mph 19.6 mph N/A   Clear
9:55 AM 70.9 °F 53.6 °F 54% 30.01 in 10.0 mi NNE 12.7 mph 18.4 mph N/A   Clear
10:15 AM 71.4 °F 54.3 °F 55% 30.01 in 10.0 mi NE 15.0 mph 19.6 mph N/A   Clear
10:35 AM 71.6 °F 55.4 °F 57% 30.02 in 10.0 mi NNE 11.5 mph 19.6 mph N/A   Clear
10:55 AM 72.5 °F 56.8 °F 58% 30.01 in 10.0 mi NNE 12.7 mph 20.7 mph N/A   Clear
11:15 AM 72.5 °F 57.2 °F 59% 30.01 in 10.0 mi North 12.7 mph 18.4 mph N/A   Clear
11:35 AM 72.3 °F 57.4 °F 59% 30.00 in 10.0 mi NNE 16.1 mph 21.9 mph N/A   Clear
11:55 AM 73.0 °F 57.7 °F 59% 30.00 in 10.0 mi North 12.7 mph 21.9 mph N/A   Clear
12:15 PM 73.0 °F 57.7 °F 59% 30.01 in 10.0 mi NNE 16.1 mph 25.3 mph N/A   Clear
12:35 PM 73.4 °F 57.6 °F 58% 30.00 in 10.0 mi NNE 16.1 mph 21.9 mph N/A   Clear
12:55 PM 74.3 °F 58.8 °F 58% 30.00 in 10.0 mi NNE 15.0 mph 24.2 mph N/A   Scattered Clouds
1:15 PM 74.3 °F 57.2 °F 55% 30.00 in 10.0 mi NNE 19.6 mph 25.3 mph N/A   Scattered Clouds
1:35 PM 73.8 °F 56.5 °F 55% 30.00 in 10.0 mi NNE 12.7 mph 23.0 mph N/A   Clear
1:55 PM 74.3 °F 57.2 °F 55% 30.00 in 10.0 mi NNE 15.0 mph 20.7 mph N/A   Clear
2:15 PM 73.4 °F 57.0 °F 56% 30.00 in 10.0 mi North 13.8 mph 21.9 mph N/A   Clear
2:35 PM 72.1 °F 54.0 °F 53% 30.00 in 10.0 mi NNE 19.6 mph 26.5 mph N/A   Scattered Clouds
2:55 PM 72.9 °F 52.0 °F 48% 30.01 in 10.0 mi NNE 18.4 mph 27.6 mph N/A   Scattered Clouds
3:15 PM 72.9 °F 54.1 °F 52% 30.00 in 10.0 mi North 16.1 mph 21.9 mph N/A   Mostly Cloudy
3:35 PM 72.7 °F 53.6 °F 51% 30.01 in 10.0 mi NNE 16.1 mph 23.0 mph N/A   Clear
3:55 PM 72.7 °F 53.8 °F 51% 30.01 in 10.0 mi NNE 18.4 mph 27.6 mph N/A   Clear
4:15 PM 73.4 °F 54.1 °F 51% 30.01 in 10.0 mi NNE 15.0 mph 26.5 mph N/A   Scattered Clouds
4:35 PM 72.3 °F 54.1 °F 53% 30.01 in 10.0 mi NNE 13.8 mph 21.9 mph N/A   Scattered Clouds
4:55 PM 72.9 °F 54.3 °F 52% 30.00 in 10.0 mi NNE 16.1 mph 25.3 mph N/A   Clear
5:15 PM 73.2 °F 54.9 °F 52% 30.00 in 10.0 mi NNE 17.3 mph 25.3 mph N/A   Scattered Clouds
5:35 PM 72.5 °F 54.7 °F 53% 30.00 in 10.0 mi NNE 12.7 mph 27.6 mph N/A   Scattered Clouds
5:55 PM 72.1 °F 54.7 °F 54% 30.00 in 10.0 mi NNE 13.8 mph 24.2 mph N/A   Mostly Cloudy
6:15 PM 71.8 °F 55.2 °F 56% 30.01 in 10.0 mi NNE 15.0 mph 23.0 mph N/A   Mostly Cloudy
6:35 PM 72.0 °F 56.1 °F 57% 30.01 in 10.0 mi NNE 11.5 mph 19.6 mph N/A   Overcast
6:55 PM 71.4 °F 55.4 °F 57% 30.02 in 10.0 mi NNE 12.7 mph 21.9 mph N/A   Overcast
7:15 PM 70.7 °F 55.2 °F 58% 30.02 in 10.0 mi NNE 12.7 mph 19.6 mph N/A   Scattered Clouds
7:35 PM 70.2 °F 54.1 °F 57% 30.02 in 10.0 mi NNE 12.7 mph 18.4 mph N/A   Scattered Clouds
7:55 PM 69.1 °F 54.3 °F 59% 30.02 in 10.0 mi NNE 10.4 mph 17.3 mph N/A   Clear
8:15 PM 68.2 °F 54.5 °F 62% 30.03 in 10.0 mi NNE 9.2 mph - N/A   Clear
8:35 PM 67.3 °F 54.1 °F 63% 30.03 in 10.0 mi NNE 6.9 mph - N/A   Clear
8:55 PM 66.4 °F 55.2 °F 67% 30.03 in 10.0 mi NNE 4.6 mph - N/A   Scattered Clouds
9:15 PM 65.8 °F 56.3 °F 71% 30.03 in 10.0 mi NNE 5.8 mph - N/A   Mostly Cloudy
9:35 PM 65.8 °F 56.3 °F 71% 30.04 in 10.0 mi NNE 8.1 mph - N/A   Overcast
9:55 PM 65.7 °F 56.5 °F 72% 30.04 in 10.0 mi NNE 8.1 mph - N/A   Overcast
10:15 PM 65.8 °F 56.5 °F 72% 30.04 in 10.0 mi NNE 6.9 mph - N/A   Overcast
10:35 PM 65.8 °F 56.3 °F 71% 30.04 in 10.0 mi NNE 6.9 mph - N/A   Overcast
10:55 PM 65.7 °F 56.7 °F 73% 30.04 in 10.0 mi NNE 6.9 mph - N/A   Overcast
11:15 PM 65.5 °F 56.5 °F 73% 30.04 in 10.0 mi NNE 5.8 mph - N/A   Overcast
11:35 PM 65.3 °F 56.8 °F 74% 30.04 in 10.0 mi NNE 4.6 mph - N/A   Mostly Cloudy
11:55 PM 65.1 °F 56.8 °F 75% 30.04 in 10.0 mi NNE 6.9 mph - N/A   Overcast